Clear Lake, IA

12:12 PM CST on December 03, 2016 (GMT -0600)
Mason City Municipal

Weather History for KMCW - February, 2014

Change the Weather History Date:

Thursday, February 6, 2014

  Actual Average Record
Temperature  
Mean Temperature -3 °F 18 °F  
Max Temperature 5 °F 27 °F 52 °F (1925)
Min Temperature -11 °F 9 °F -22 °F (1900)
Degree Days  
Heating Degree Days 68 47  
Month to date heating degree days 366 286  
Since 1 July heating degree days 5336 4897  
Cooling Degree Days 0 0  
Month to date cooling degree days 0 0  
Year to date cooling degree days 0 0  
Moisture  
Dew Point -8 °F    
Average Humidity 78    
Maximum Humidity 86    
Minimum Humidity 69    
Precipitation  
Precipitation 0.00 in 0.03 in 0.84 in (2005)
Month to date precipitation 0.02 0.19  
Year to date precipitation 0.85 1.01  
Snow  
Snow 0.00 in 0.30 in 5.00 in (1931)
Month to date snowfall 1.1 2.0  
Since 1 July snowfall 26.7 26.8  
Snow Depth 10.00 in    
Sea Level Pressure  
Sea Level Pressure 30.47 in    
Wind  
Wind Speed 13 mph (West)    
Max Wind Speed 21 mph    
Max Gust Speed 27 mph    
Visibility 10 miles    
Events      
T = Trace of Precipitation, MM = Missing Value Source: NWS Daily Summary

Daily Weather History Graph

Daily Weather History Graph

Search for Another Location

Airport or City:

Trip Planner

Search our weather history database for the weather conditions in past years. The results will help you decide how hot, cold, wet, or windy it might be!

Date:

Astronomy

Feb. 06, 2014 Rise Set
Actual Time 7:22 AM CST 5:32 PM CST
Civil Twilight 6:53 AM CST 6:02 PM CST
Nautical Twilight 6:19 AM CST 6:36 PM CST
Astronomical Twilight 5:46 AM CST 7:09 PM CST
Moon 11:04 AM CST (2/6) 12:39 AM CST (2/6)
Length of Visible Light 11h 09m
Length of Day
10h 09m
Waxing Crescent, 49% of the Moon is Illuminated
Feb 6
Waxing Crescent
Feb 6
First Quarter
Feb 14
Full
Feb 22
Last Quarter
Mar 1
New

Hourly Weather History & Observations

Time (CST) Temp. Windchill Dew Point Humidity Pressure Visibility Wind Dir Wind Speed Gust Speed Precip Events Conditions
12:53 AM -7.1 °F -25.0 °F -11.9 °F 79% 30.58 in 10.0 mi WNW 10.4 mph - N/A   Clear
1:53 AM -7.1 °F -25.9 °F -13.0 °F 75% 30.56 in 10.0 mi WNW 11.5 mph - N/A   Clear
2:53 AM -9.0 °F -27.4 °F -14.1 °F 79% 30.56 in 10.0 mi West 10.4 mph - N/A   Clear
3:53 AM -9.0 °F -27.4 °F -13.0 °F 83% 30.56 in 10.0 mi West 10.4 mph - N/A   Clear
4:53 AM -9.0 °F -28.4 °F -14.1 °F 79% 30.55 in 10.0 mi West 11.5 mph - N/A   Clear
5:53 AM -9.9 °F -28.6 °F -15.0 °F 78% 30.54 in 10.0 mi West 10.4 mph - N/A   Clear
6:53 AM -11.0 °F -29.9 °F -15.0 °F 83% 30.54 in 10.0 mi West 10.4 mph - N/A   Clear
7:53 AM -9.9 °F -29.6 °F -15.0 °F 78% 30.55 in 10.0 mi West 11.5 mph - N/A   Clear
8:53 AM -8.0 °F -29.6 °F -13.0 °F 79% 30.55 in 10.0 mi WNW 15.0 mph - N/A   Clear
10:53 AM -2.0 °F -23.3 °F -9.0 °F 72% 30.55 in 10.0 mi West 17.3 mph - N/A   Clear
11:53 AM -0.0 °F -21.8 °F -8.0 °F 69% 30.53 in 10.0 mi WNW 19.6 mph 27.6 mph N/A   Partly Cloudy
12:53 PM 1.9 °F -18.7 °F -7.1 °F 66% 30.51 in 10.0 mi West 18.4 mph - N/A   Scattered Clouds
2:53 PM 3.9 °F -15.6 °F -4.0 °F 70% 30.45 in 10.0 mi West 17.3 mph - N/A   Scattered Clouds
3:37 PM 5.0 °F -13.0 °F -2.9 °F 70% 30.35 in 9.0 mi West 15.0 mph - N/A   Mostly Cloudy
3:53 PM 5.0 °F -15.2 °F -4.0 °F 66% 30.44 in 10.0 mi West 19.6 mph - N/A   Mostly Cloudy
4:12 PM 5.0 °F -15.7 °F -4.0 °F 66% 30.34 in 10.0 mi West 20.7 mph - N/A   Scattered Clouds
4:19 PM 5.0 °F -13.0 °F -4.0 °F 66% 30.34 in 10.0 mi West 15.0 mph - N/A   Mostly Cloudy
4:53 PM 3.9 °F -16.1 °F -4.0 °F 70% 30.43 in 9.0 mi West 18.4 mph - N/A   Mostly Cloudy
5:11 PM 3.0 °F -15.5 °F -2.9 °F 76% 30.34 in 9.0 mi West 15.0 mph - N/A   Scattered Clouds
5:53 PM 1.9 °F -14.7 °F -5.1 °F 72% 30.43 in 10.0 mi West 11.5 mph - N/A   Clear
6:53 PM 1.0 °F -17.3 °F -6.0 °F 72% 30.42 in 10.0 mi West 13.8 mph - N/A   Clear
7:53 PM 1.0 °F -18.0 °F -6.0 °F 72% 30.41 in 10.0 mi West 15.0 mph - N/A   Clear
8:53 PM -0.0 °F -18.0 °F -6.0 °F 76% 30.41 in 10.0 mi West 12.7 mph - N/A   Scattered Clouds
9:53 PM -0.0 °F -18.7 °F -6.0 °F 76% 30.40 in 10.0 mi WSW 13.8 mph - N/A   Partly Cloudy
10:53 PM -0.0 °F -18.0 °F -7.1 °F 72% 30.40 in 10.0 mi WSW 12.7 mph - N/A   Clear
11:53 PM -0.9 °F -20.6 °F -7.1 °F 75% 30.39 in 10.0 mi West 15.0 mph - N/A   Clear